N0TOA-13 Weather Reports


time (UTC)temp
C
wind
direction
speed
KPH
gust
KPH
rain 1hr
cm
rain 24hr
cm
rain mn
cm
humidity
%
barometer
mb
20260505101004 6 137 1.6 8.0 0.00 0.00 0.00 83 988.6
20260505100003 6 305 1.6 4.8 0.00 0.00 0.00 89 1014.4
20260505095005 6 137 1.6 8.0 0.00 0.00 0.00 83 988.4
20260505094004 7 137 1.6 4.8 0.00 0.00 0.00 83 988.5
20260505093004 7 46 1.6 4.8 0.00 0.00 0.00 93 1014.5
20260505092004 7 335 0.0 4.8 0.00 0.00 0.00 94 1014.5
20260505091004 7 137 1.6 3.2 0.00 0.00 0.00 86 988.6
20260505090005 7 137 1.6 4.8 0.00 0.00 0.00 86 988.6
20260505085004 7 137 1.6 3.2 0.00 0.00 0.00 86 988.6
20260505084005 7 137 1.6 3.2 0.00 0.00 0.00 86 988.7
20260505083005 7 137 1.6 1.6 0.00 0.00 0.00 89 988.7
20260505083003 7 32 1.6 1.6 0.00 0.00 0.00 95 1014.6
20260505082005 7 137 1.6 1.6 0.00 0.00 0.00 89 988.8
20260505081004 7 336 0.0 1.6 0.00 0.00 0.00 94 1014.7
20260505080005 7 137 1.6 1.6 0.00 0.00 0.00 89 988.8
20260505075005 7 137 1.6 3.2 0.00 0.00 0.00 89 988.9
20260505074005 7 137 1.6 1.6 0.00 0.00 0.00 89 989.0
20260505073004 7 339 0.0 4.8 0.00 0.00 0.00 96 1015.1
20260505072004 7 334 0.0 4.8 0.00 0.00 0.00 96 1015.1
20260505071004 8 316 0.0 3.2 0.00 0.00 0.00 96 1015.2
20260505070005 8 137 1.6 3.2 0.00 0.00 0.00 92 989.2
20260505065004 8 75 0.0 3.2 0.00 0.00 0.00 96 1015.3
20260505064004 8 349 1.6 3.2 0.00 0.00 0.00 96 1015.4
20260505063005 8 137 1.6 4.8 0.00 0.00 0.00 92 989.4
20260505062004 8 260 0.0 3.2 0.00 0.00 0.00 96 1015.3
20260505061005 8 137 1.6 4.8 0.00 0.00 0.00 92 989.4
20260505060004 8 267 1.6 3.2 0.00 0.00 0.00 96 1015.5
20260505055004 7 137 1.6 3.2 0.00 0.00 0.00 92 989.5
20260505054005 7 137 1.6 1.6 0.00 0.00 0.00 92 989.3
20260505053004 7 318 0.0 1.6 0.00 0.00 0.00 96 1015.4
20260505052004 7 137 1.6 1.6 0.00 0.00 0.00 89 989.5
20260505051004 7 302 1.6 3.2 0.00 0.00 0.00 95 1015.7
20260505041004 8 137 1.6 1.6 0.00 0.00 0.00 54 989.8
20260505040005 10 137 1.6 1.6 0.00 0.00 0.00 54 989.6
20260505035004 11 330 3.2 12.9 0.00 0.00 0.00 75 1015.4
20260505034005 11 137 1.6 1.6 0.00 0.00 0.00 54 989.2
20260505033004 11 137 1.6 1.6 0.00 0.00 0.00 56 989.0
20260505032004 11 137 1.6 1.6 0.00 0.00 0.00 56 988.8
20260505031004 11 137 1.6 1.6 0.00 0.00 0.00 56 988.7
20260505030004 11 344 3.2 8.0 0.00 0.00 0.00 61 1014.4
20260505025004 11 357 1.6 4.8 0.00 0.00 0.00 60 1014.2
20260505024005 11 137 1.6 1.6 0.00 0.00 0.00 56 988.2
20260505023004 11 350 1.6 3.2 0.00 0.00 0.00 61 1014.1
20260505022004 11 137 1.6 1.6 0.00 0.00 0.00 50 988.2
20260505021004 11 66 1.6 4.8 0.00 0.00 0.00 61 1014.2
20260505020004 11 324 1.6 4.8 0.00 0.00 0.00 60 1014.1
20260505015004 12 359 1.6 8.0 0.00 0.00 0.00 57 1013.8
20260505014004 12 353 3.2 4.8 0.00 0.00 0.00 54 1013.6
20260505013004 12 137 1.6 1.6 0.00 0.00 0.00 30 987.8
20260505012004 12 137 1.6 1.6 0.00 0.00 0.00 30 987.8
20260505011004 13 137 1.6 1.6 0.00 0.00 0.00 30 987.8
20260505010004 13 340 4.8 12.9 0.00 0.00 0.00 49 1013.6
20260505005005 14 137 1.6 1.6 0.00 0.00 0.00 30 987.7
20260505003005 15 137 1.6 1.6 0.00 0.00 0.00 27 987.4
20260505002005 15 137 1.6 1.6 0.00 0.00 0.00 27 987.3
20260505001005 15 137 1.6 1.6 0.00 0.00 0.00 27 987.1
20260505000004 15 348 8.0 14.5 0.00 0.00 0.00 40 1012.9
20260504235005 16 137 1.6 1.6 0.00 0.00 0.00 27 986.8
20260504234005 16 137 1.6 1.6 0.00 0.00 0.00 27 986.8
20260504233005 16 137 1.6 1.6 0.00 0.00 0.00 21 986.6
20260504232005 16 137 1.6 1.6 0.00 0.00 0.00 21 986.6
20260504232003 16 346 4.8 12.9 0.00 0.00 0.00 35 1012.5
20260504231004 16 348 6.4 12.9 0.00 0.00 0.00 34 1012.3
20260504230005 17 137 1.6 1.6 0.00 0.00 0.00 21 986.3
20260504225005 17 137 1.6 1.6 0.00 0.00 0.00 21 986.1
20260504225003 17 335 4.8 12.9 0.00 0.00 0.00 34 1012.0
20260504224005 17 137 1.6 1.6 0.00 0.00 0.00 21 986.1
20260504224003 17 335 4.8 12.9 0.00 0.00 0.00 33 1012.0
20260504222004 18 1 4.8 9.7 0.00 0.00 0.00 32 1012.1
20260504221004 18 2 4.8 11.3 0.00 0.00 0.00 30 1012.0
20260504220004 19 345 4.8 9.7 0.00 0.00 0.00 27 1011.5
20260504215004 19 11 3.2 9.7 0.00 0.00 0.00 25 1011.6
20260504214005 20 137 1.6 1.6 0.00 0.00 0.00 21 985.8
20260504213004 20 359 3.2 14.5 0.00 0.00 0.00 26 1011.9
20260504212005 20 137 1.6 1.6 0.00 0.00 0.00 20 986.0
20260504212003 20 352 6.4 14.5 0.00 0.00 0.00 26 1011.9
20260504211005 20 137 1.6 1.6 0.00 0.00 0.00 20 986.1
20260504210005 20 137 1.6 1.6 0.00 0.00 0.00 20 986.1
20260504205005 20 137 1.6 1.6 0.00 0.00 0.00 20 986.2
20260504204004 20 137 1.6 1.6 0.00 0.00 0.00 20 986.3
20260504203004 20 352 4.8 12.9 0.00 0.00 0.00 26 1012.4
20260504202004 19 137 1.6 1.6 0.00 0.00 0.00 28 986.4
20260504201005 20 137 1.6 1.6 0.00 0.00 0.00 28 986.4
20260504200005 20 137 1.6 1.6 0.00 0.00 0.00 28 986.5
20260504195004 20 137 1.6 1.6 0.00 0.00 0.00 28 986.5
20260504194004 20 137 1.6 1.6 0.00 0.00 0.00 28 986.6
20260504193004 18 352 4.8 14.5 0.00 0.00 0.00 29 1012.5
20260504192004 18 137 1.6 1.6 0.00 0.00 0.00 17 986.6
20260504191004 17 350 6.4 16.1 0.00 0.00 0.00 29 1012.6
20260504190004 18 137 1.6 1.6 0.00 0.00 0.00 17 986.7
20260504185004 18 324 4.8 11.3 0.00 0.00 0.00 25 1012.5
20260504184004 19 137 1.6 1.6 0.00 0.00 0.00 17 986.6
20260504183004 20 137 1.6 1.6 0.00 0.00 0.00 18 986.5
20260504182004 20 137 1.6 1.6 0.00 0.00 0.00 18 986.4
20260504181004 20 137 1.6 1.6 0.00 0.00 0.00 18 986.6
20260504180004 20 137 1.6 1.6 0.00 0.00 0.00 18 986.6
20260504175004 20 351 4.8 12.9 0.00 0.00 0.00 24 1012.6
20260504174005 21 137 1.6 1.6 0.00 0.00 0.00 18 986.8
20260504174003 21 3 4.8 11.3 0.00 0.00 0.00 24 1012.7
20260504173005 20 137 1.6 1.6 0.00 0.00 0.00 20 986.9
20260504172004 20 356 3.2 11.3 0.00 0.00 0.00 25 1012.9
20260504171005 20 137 1.6 1.6 0.00 0.00 0.00 20 987.1
20260504171003 20 262 3.2 12.9 0.00 0.00 0.00 24 1013.0
20260504151005 16 137 1.6 1.6 0.00 0.00 0.00 25 987.8
20260504141005 12 137 1.6 1.6 0.00 0.00 0.00 34 988.0